KT2UU-13 Weather Reports


time (UTC)temp
F
wind
direction
speed
knots
gust
knots
rain 1hr
in
rain 24hr
in
rain mn
in
humidity
%
barometer
mb
20260510160420 72 237 0.9 1.7 0.00 0.00 0.00 77 1018.8
20260510155914 71 233 0.9 1.7 0.00 0.00 0.00 78 1018.9
20260510155411 71 227 1.7 2.6 0.00 0.00 0.00 78 1018.9
20260510154908 71 213 0.0 1.7 0.00 0.00 0.00 83 1019.0
20260510154403 71 0 0.9 1.7 0.00 0.00 0.00 84 1018.9
20260510153857 70 0 0.0 1.7 0.00 0.00 0.00 84 1018.9
20260510153354 69 233 0.0 0.0 0.00 0.00 0.00 84 1018.8
20260510152850 70 201 2.6 3.5 0.00 0.00 0.00 83 1019.0
20260510152348 70 203 0.9 0.9 0.00 0.00 0.00 85 1018.8
20260510151844 69 220 0.9 1.7 0.00 0.00 0.00 86 1018.9
20260510151342 68 234 1.7 2.6 0.00 0.00 0.00 87 1019.0
20260510150838 68 231 1.7 1.7 0.00 0.00 0.00 89 1019.0
20260510150333 67 247 1.7 1.7 0.00 0.00 0.00 89 1019.0
20260510145830 67 233 0.9 1.7 0.00 0.00 0.00 89 1019.0
20260510145326 67 203 0.0 2.6 0.00 0.00 0.00 90 1019.1
20260510144823 66 213 0.9 1.7 0.00 0.00 0.00 91 1019.0
20260510144320 66 227 0.0 2.6 0.00 0.00 0.00 92 1019.0
20260510143819 64 181 0.0 0.0 0.00 0.00 0.00 95 1018.9
20260510143316 63 181 0.0 1.7 0.00 0.00 0.00 96 1018.8
20260510142813 63 215 0.9 1.7 0.00 0.00 0.00 97 1019.0
20260510142310 63 213 0.9 1.7 0.00 0.00 0.00 99 1018.9
20260510141807 63 167 0.0 0.0 0.00 0.00 0.00 99 1019.1
20260510141304 62 167 0.0 0.9 0.00 0.00 0.00 99 1018.7
20260510140801 62 167 0.0 0.9 0.00 0.00 0.00 99 1019.0
20260510140256 62 167 0.0 0.0 0.00 0.00 0.00 99 1018.7
20260510135750 62 167 0.0 0.0 0.00 0.00 0.00 99 1018.8
20260510135246 62 167 0.0 0.0 0.00 0.00 0.00 99 1018.8
20260510134744 61 167 0.0 0.9 0.00 0.00 0.00 99 1018.8
20260510134241 61 167 1.7 1.7 0.00 0.00 0.00 99 1018.6
20260510133737 62 167 0.0 0.0 0.00 0.00 0.00 99 1018.8
20260510133232 61 167 0.0 0.0 0.00 0.00 0.00 99 1019.0
20260510132728 61 167 0.0 0.9 0.00 0.00 0.00 99 1018.6
20260510132226 61 167 0.0 0.0 0.00 0.00 0.00 99 1018.4
20260510131723 61 167 0.0 0.9 0.00 0.00 0.00 99 1018.5
20260510131221 61 163 0.0 0.0 0.00 0.00 0.00 99 1018.3
20260510130717 61 163 0.0 0.0 0.00 0.00 0.00 99 1018.4
20260510130215 61 163 0.0 0.0 0.00 0.00 0.00 99 1018.3
20260510125710 60 163 0.0 0.0 0.00 0.00 0.00 99 1018.2
20260510125207 60 163 0.0 0.0 0.00 0.00 0.00 99 1018.4
20260510124703 60 163 0.0 0.0 0.00 0.00 0.00 99 1018.3
20260510124200 60 163 0.0 0.0 0.00 0.00 0.00 99 1018.4
20260510123650 60 163 0.0 0.0 0.00 0.00 0.00 99 1018.1
20260510123147 60 163 0.0 0.0 0.00 0.00 0.00 99 1018.1
20260510122643 60 163 0.0 0.0 0.00 0.00 0.00 99 1018.0
20260510122139 60 163 0.0 0.0 0.00 0.00 0.00 99 1017.9
20260510121636 60 163 0.0 0.0 0.00 0.00 0.00 99 1017.9
20260510121133 60 163 0.0 0.0 0.00 0.00 0.00 99 1018.0
20260510120631 60 163 0.0 0.0 0.00 0.00 0.00 99 1018.2
20260510120126 60 163 0.0 0.0 0.00 0.00 0.00 99 1017.9
20260510115622 60 163 0.0 0.0 0.00 0.00 0.00 99 1017.8
20260510115121 60 163 0.0 0.0 0.00 0.00 0.00 99 1017.9
20260510114616 60 163 0.0 0.0 0.00 0.00 0.00 99 1017.7
20260510114112 59 163 0.0 0.0 0.00 0.00 0.00 99 1017.7
20260510113608 59 163 0.0 0.0 0.00 0.00 0.00 99 1017.4
20260510113105 59 163 0.0 0.0 0.00 0.00 0.00 99 1017.4
20260510112602 59 163 0.0 0.0 0.00 0.00 0.00 99 1017.5
20260510112058 59 163 0.0 0.0 0.00 0.00 0.00 99 1017.2
20260510111554 59 163 0.0 0.0 0.00 0.00 0.00 99 1017.0
20260510111050 59 163 0.0 0.0 0.00 0.00 0.00 99 1017.0
20260510110547 58 163 0.0 0.0 0.00 0.00 0.00 99 1016.8
20260510110043 58 163 0.0 0.0 0.00 0.00 0.00 99 1017.0
20260510105539 58 163 0.0 0.0 0.00 0.00 0.00 99 1016.9
20260510105034 58 163 0.0 0.0 0.00 0.00 0.00 99 1016.8
20260510104531 58 163 0.0 0.0 0.00 0.00 0.00 99 1016.8
20260510104027 58 163 0.0 0.0 0.00 0.00 0.00 99 1016.8
20260510103525 58 163 0.0 0.0 0.00 0.00 0.00 99 1016.7
20260510103021 58 163 0.0 0.0 0.00 0.00 0.00 99 1016.6
20260510102516 58 163 0.0 0.0 0.00 0.00 0.00 99 1016.7
20260510102013 58 163 0.0 0.0 0.00 0.00 0.00 99 1016.5
20260510101511 57 163 0.0 0.0 0.00 0.00 0.00 99 1016.3
20260510101009 57 163 0.0 0.0 0.00 0.00 0.00 99 1016.2
20260510100504 57 163 0.0 0.0 0.00 0.00 0.00 99 1016.2
20260510100002 56 163 0.0 0.0 0.00 0.00 0.00 99 1016.2
20260510095457 56 163 0.0 0.0 0.00 0.00 0.00 99 1016.2
20260510094956 56 163 0.0 0.0 0.00 0.00 0.00 99 1016.0
20260510094451 56 163 0.0 0.0 0.00 0.00 0.00 99 1016.2
20260510093947 56 163 0.0 0.0 0.00 0.00 0.00 99 1015.9
20260510093443 56 163 0.0 0.0 0.00 0.00 0.00 99 1016.0
20260510092939 56 167 0.0 0.0 0.00 0.00 0.00 99 1016.0
20260510092437 56 163 0.0 0.0 0.00 0.00 0.00 99 1015.9
20260510091930 56 163 0.0 0.0 0.00 0.00 0.00 99 1016.0
20260510091428 56 167 0.0 0.0 0.00 0.00 0.00 99 1015.8
20260510090924 56 163 0.0 0.0 0.00 0.00 0.00 99 1016.1
20260510090421 57 163 0.0 0.0 0.00 0.00 0.00 99 1015.6
20260510085917 57 163 0.0 0.0 0.00 0.00 0.00 99 1015.7
20260510085412 57 163 0.0 0.0 0.00 0.00 0.00 99 1015.5
20260510084907 57 163 0.0 0.0 0.00 0.00 0.00 99 1015.6
20260510084405 58 167 0.0 0.0 0.00 0.00 0.00 99 1015.7
20260510083901 58 163 0.0 0.0 0.00 0.00 0.00 99 1015.5
20260510083358 58 163 0.0 0.0 0.00 0.00 0.00 99 1015.4
20260510082853 57 163 0.0 0.0 0.00 0.00 0.00 99 1015.1
20260510082351 57 163 0.0 0.0 0.00 0.00 0.00 99 1015.1
20260510081850 57 163 0.0 0.0 0.00 0.00 0.00 99 1015.2
20260510081346 57 163 0.0 0.0 0.00 0.00 0.00 99 1015.2
20260510080842 58 163 0.0 0.0 0.00 0.00 0.00 99 1015.3
20260510080331 58 163 0.0 0.0 0.00 0.00 0.00 99 1015.1
20260510075829 58 163 0.0 0.0 0.00 0.00 0.00 99 1015.0
20260510075326 58 163 0.0 0.0 0.00 0.00 0.00 99 1015.1
20260510074822 59 163 0.0 0.0 0.00 0.00 0.00 99 1015.1
20260510074320 59 163 0.0 0.0 0.00 0.00 0.00 99 1015.0
20260510073815 59 163 0.0 0.0 0.00 0.00 0.00 99 1014.9
20260510073312 58 163 0.0 0.0 0.00 0.00 0.00 99 1015.0
20260510072808 59 163 0.0 0.0 0.00 0.00 0.00 99 1014.9
20260510072306 59 163 0.0 0.0 0.00 0.00 0.00 99 1015.0
20260510071801 59 163 0.0 0.0 0.00 0.00 0.00 99 1014.9
20260510071257 59 163 0.0 0.0 0.00 0.00 0.00 99 1014.9
20260510070757 59 163 0.0 0.0 0.00 0.00 0.00 99 1014.9
20260510070252 59 167 0.0 0.0 0.00 0.00 0.00 99 1015.1
20260510065747 59 163 0.0 0.0 0.00 0.00 0.00 99 1015.0
20260510065244 60 163 0.0 0.0 0.00 0.00 0.00 99 1014.9
20260510064740 60 163 0.0 0.0 0.00 0.00 0.00 99 1015.0
20260510064238 60 163 0.0 0.0 0.00 0.00 0.00 99 1015.0
20260510063734 59 163 0.0 0.0 0.00 0.00 0.00 99 1015.0
20260510063231 60 163 0.0 0.0 0.00 0.00 0.00 99 1015.0
20260510062727 60 163 0.0 0.0 0.00 0.00 0.00 99 1015.1
20260510062223 61 163 0.0 0.0 0.00 0.00 0.00 99 1015.0
20260510061719 61 163 0.0 0.0 0.00 0.00 0.00 98 1015.1
20260510061216 61 163 0.0 0.0 0.00 0.00 0.00 98 1015.0
20260510060713 62 163 0.0 0.0 0.00 0.00 0.00 98 1015.1
20260510060209 62 163 0.0 0.0 0.00 0.00 0.00 98 1015.0
20260510055706 62 163 0.0 0.0 0.00 0.00 0.00 98 1015.2
20260510055204 62 163 0.0 0.0 0.00 0.00 0.00 98 1015.4
20260510054659 62 163 0.0 0.0 0.00 0.00 0.00 98 1015.1
20260510054155 62 163 0.0 0.0 0.00 0.00 0.00 98 1015.2
20260510053654 62 163 0.0 0.0 0.00 0.00 0.00 98 1015.4
20260510053151 62 163 0.0 0.0 0.00 0.00 0.00 98 1015.2
20260510052647 62 167 0.0 0.0 0.00 0.00 0.00 98 1015.3
20260510052143 62 163 0.0 0.0 0.00 0.00 0.00 98 1015.5
20260510051639 62 163 0.0 0.0 0.00 0.00 0.00 98 1015.4
20260510051136 61 163 0.0 0.0 0.00 0.00 0.00 99 1015.3
20260510050633 61 163 0.0 0.0 0.00 0.00 0.00 98 1015.4
20260510050130 61 163 0.0 0.0 0.00 0.00 0.00 97 1015.6
20260510045627 61 163 0.0 0.0 0.00 0.00 0.00 97 1015.5
20260510045123 62 163 0.0 0.0 0.00 0.00 0.00 96 1015.6
20260510044619 62 163 0.0 0.0 0.00 0.00 0.00 96 1015.6
20260510044117 62 163 0.0 0.0 0.00 0.00 0.00 95 1015.6
20260510043613 63 163 0.0 0.0 0.00 0.00 0.00 95 1015.7
20260510043109 63 163 0.0 0.0 0.00 0.00 0.00 95 1015.8
20260510042608 63 163 0.0 0.0 0.00 0.00 0.00 95 1015.6
20260510042103 64 163 0.0 0.0 0.00 0.00 0.00 95 1015.7
20260510041600 64 163 0.0 0.0 0.00 0.00 0.00 95 1015.6
20260510041057 64 163 0.0 0.0 0.00 0.00 0.00 95 1015.7
20260510040554 63 163 0.0 0.0 0.00 0.00 0.00 95 1015.5
20260510040050 63 163 0.0 0.0 0.00 0.00 0.00 95 1015.6
20260510035547 63 167 0.0 0.0 0.00 0.00 0.00 96 1015.8
20260510035046 63 163 0.0 0.0 0.00 0.00 0.00 97 1015.9
20260510034545 62 163 0.0 0.0 0.00 0.00 0.00 98 1015.6
20260510034041 61 163 0.0 0.0 0.00 0.00 0.00 98 1015.4
20260510033537 62 163 0.0 0.0 0.00 0.00 0.00 97 1015.6
20260510033035 62 163 0.0 0.0 0.00 0.00 0.00 97 1015.2
20260510032532 62 163 0.0 0.0 0.00 0.00 0.00 97 1015.1
20260510032027 62 163 0.0 0.0 0.00 0.00 0.00 97 1015.5
20260510031522 62 163 0.0 0.0 0.00 0.00 0.00 97 1015.3
20260510031018 62 163 0.0 0.0 0.00 0.00 0.00 97 1015.3
20260510030514 62 163 0.0 0.0 0.00 0.00 0.00 97 1015.2
20260510030011 62 163 0.0 0.0 0.00 0.00 0.00 97 1015.1
20260510025508 62 163 0.0 0.0 0.00 0.00 0.00 96 1015.1
20260510025006 62 163 0.0 0.0 0.00 0.00 0.00 96 1015.0
20260510024503 62 163 0.0 0.0 0.00 0.00 0.00 96 1014.9
20260510023958 62 163 0.0 0.0 0.00 0.00 0.00 96 1015.0
20260510023455 62 163 0.0 0.0 0.00 0.00 0.00 96 1014.8
20260510022952 62 163 0.0 0.0 0.00 0.00 0.00 96 1014.8
20260510022451 62 163 0.0 0.0 0.00 0.00 0.00 96 1014.8
20260510021950 63 163 0.0 0.0 0.00 0.00 0.00 95 1014.7
20260510021448 63 163 0.0 0.0 0.00 0.00 0.00 94 1014.5
20260510020944 63 163 0.0 0.0 0.00 0.00 0.00 94 1014.5
20260510020439 63 163 0.0 0.0 0.00 0.00 0.00 94 1014.5
20260510015935 63 163 0.0 0.0 0.00 0.00 0.00 93 1014.5
20260510015431 63 163 0.0 0.0 0.00 0.00 0.00 93 1014.3
20260510014926 64 163 0.0 0.0 0.00 0.00 0.00 93 1014.4
20260510014424 64 163 0.0 0.0 0.00 0.00 0.00 92 1013.9
20260510013920 64 163 0.0 0.0 0.00 0.00 0.00 91 1013.8
20260510013415 64 163 0.0 0.0 0.00 0.00 0.00 91 1014.1
20260510012910 64 163 0.0 0.0 0.00 0.00 0.00 90 1014.0
20260510012406 65 163 0.0 0.0 0.00 0.00 0.00 89 1014.2
20260510011901 65 163 0.0 0.0 0.00 0.00 0.00 89 1013.8
20260510011356 65 163 0.0 0.0 0.00 0.00 0.00 88 1013.8
20260510010853 66 163 0.0 0.0 0.00 0.00 0.00 88 1014.2
20260510010350 66 163 0.0 0.0 0.00 0.00 0.00 87 1013.9
20260510005846 67 163 0.0 0.0 0.00 0.00 0.00 86 1013.9
20260510005343 67 163 0.0 0.0 0.00 0.00 0.00 85 1013.7
20260510004840 68 163 0.0 0.0 0.00 0.00 0.00 84 1013.8
20260510004338 68 163 0.0 0.0 0.00 0.00 0.00 82 1013.8
20260510003836 68 167 0.0 0.0 0.00 0.00 0.00 81 1013.7
20260510003332 68 163 0.0 0.0 0.00 0.00 0.00 81 1013.8
20260510002831 69 163 0.0 0.0 0.00 0.00 0.00 81 1013.5
20260510002328 69 163 0.0 0.0 0.00 0.00 0.00 81 1013.5
20260510001825 69 163 0.0 0.0 0.00 0.00 0.00 81 1013.5
20260510001323 69 163 0.0 0.0 0.00 0.00 0.00 81 1013.5
20260510000819 69 163 0.0 0.0 0.00 0.00 0.00 79 1013.4
20260510000318 70 163 0.0 0.0 0.00 0.00 0.00 78 1013.2
20260509235813 70 163 0.0 0.0 0.00 0.00 0.00 77 1013.2
20260509235310 70 163 0.0 0.0 0.00 0.00 0.00 77 1013.1
20260509234805 71 163 0.0 0.0 0.00 0.00 0.00 75 1013.0
20260509234302 71 163 0.0 0.0 0.00 0.00 0.00 75 1013.1
20260509233801 71 167 0.0 0.9 0.00 0.00 0.00 73 1013.2
20260509233258 71 163 0.9 0.9 0.00 0.00 0.00 72 1013.0
20260509232754 72 158 0.0 0.9 0.00 0.00 0.00 72 1012.9
20260509232251 72 204 0.9 1.7 0.00 0.00 0.00 71 1012.8
20260509231747 72 167 0.0 1.7 0.00 0.00 0.00 71 1012.8
20260509231244 73 194 1.7 2.6 0.00 0.00 0.00 71 1012.7
20260509230742 73 187 0.0 0.0 0.00 0.00 0.00 71 1012.8
20260509230239 74 219 0.0 0.0 0.00 0.00 0.00 72 1012.7
20260509225734 74 241 0.0 0.0 0.00 0.00 0.00 71 1012.9
20260509225230 73 139 0.0 1.7 0.00 0.00 0.00 68 1012.5
20260509224726 73 192 0.0 0.0 0.00 0.00 0.00 69 1012.7
20260509224224 73 192 0.0 0.0 0.00 0.00 0.00 68 1012.4
20260509223720 73 192 0.0 0.9 0.00 0.00 0.00 70 1012.8
20260509223217 73 200 0.0 1.7 0.00 0.00 0.00 69 1012.8
20260509222714 74 190 0.0 0.9 0.00 0.00 0.00 70 1012.5
20260509222209 74 200 0.0 2.6 0.00 0.00 0.00 68 1012.6
20260509221705 74 169 2.6 3.5 0.00 0.00 0.00 66 1012.4
20260509221201 74 230 0.9 2.6 0.00 0.00 0.00 67 1012.5
20260509220658 74 184 0.9 1.7 0.00 0.00 0.00 69 1012.5
20260509220154 76 186 0.0 1.7 0.00 0.00 0.00 66 1012.5
20260509215650 75 216 0.0 0.0 0.00 0.00 0.00 68 1012.4
20260509215147 75 174 0.0 0.0 0.00 0.00 0.00 69 1012.6
20260509214644 75 174 0.0 0.0 0.00 0.00 0.00 68 1012.2
20260509214141 75 174 0.0 0.0 0.00 0.00 0.00 69 1012.6
20260509213637 74 174 0.9 1.7 0.00 0.00 0.00 69 1012.6
20260509213133 74 195 1.7 1.7 0.00 0.00 0.00 72 1012.3
20260509212631 74 195 0.9 1.7 0.00 0.00 0.00 71 1012.4
20260509212127 74 194 0.0 0.9 0.00 0.00 0.00 70 1012.5
20260509211623 74 196 0.0 3.5 0.00 0.00 0.00 69 1012.5
20260509211120 75 186 0.9 1.7 0.00 0.00 0.00 69 1012.6
20260509210617 75 231 1.7 3.5 0.00 0.00 0.00 66 1012.5
20260509210114 75 326 0.0 0.0 0.00 0.00 0.00 68 1012.6
20260509205608 74 326 0.0 0.0 0.00 0.00 0.00 71 1012.5
20260509205103 74 176 0.9 1.7 0.00 0.00 0.00 70 1012.6
20260509204600 73 174 0.0 0.0 0.00 0.00 0.00 71 1012.4
20260509204057 74 174 0.0 0.9 0.00 0.00 0.00 69 1012.4
20260509203552 73 172 0.9 0.9 0.00 0.00 0.00 71 1012.8
20260509203050 74 184 0.9 2.6 0.00 0.00 0.00 68 1012.9
20260509202545 74 194 0.9 3.5 0.00 0.00 0.00 69 1012.9
20260509202041 74 209 0.0 1.7 0.00 0.00 0.00 69 1012.9
20260509201536 74 277 0.9 2.6 0.00 0.00 0.00 71 1012.8
20260509201034 73 166 0.0 0.9 0.00 0.00 0.00 72 1012.6
20260509200527 72 166 0.0 0.9 0.00 0.00 0.00 72 1012.7
20260509200025 73 204 0.0 0.9 0.00 0.00 0.00 71 1012.6
20260509195520 72 211 1.7 1.7 0.00 0.00 0.00 69 1012.4
20260509195020 72 166 1.7 2.6 0.00 0.00 0.00 70 1012.7
20260509194515 72 191 1.7 3.5 0.00 0.00 0.00 71 1012.7
20260509194013 72 169 0.0 0.0 0.00 0.00 0.00 71 1012.9
20260509193513 73 165 0.0 1.7 0.00 0.00 0.00 71 1012.6
20260509193010 73 183 0.9 1.7 0.00 0.00 0.00 70 1012.9
20260509192506 72 143 0.0 0.0 0.00 0.00 0.00 70 1013.0
20260509192001 72 251 0.0 1.7 0.00 0.00 0.00 71 1013.0
20260509191456 72 194 1.7 2.6 0.00 0.00 0.00 72 1012.9
20260509190952 72 159 0.9 1.7 0.00 0.00 0.00 72 1013.1
20260509190449 71 159 0.9 1.7 0.00 0.00 0.00 72 1013.0
20260509185947 71 151 1.7 3.5 0.00 0.00 0.00 73 1012.9
20260509185444 71 142 0.9 2.6 0.00 0.00 0.00 73 1013.0
20260509184940 72 112 0.0 0.9 0.00 0.00 0.00 73 1013.0
20260509184439 71 359 0.9 0.9 0.00 0.00 0.00 73 1013.3
20260509183935 71 107 0.0 0.0 0.00 0.00 0.00 73 1013.4
20260509183429 70 112 0.0 1.7 0.00 0.00 0.00 73 1013.3
20260509182926 70 187 0.0 0.9 0.00 0.00 0.00 75 1013.5
20260509182422 71 118 0.0 0.9 0.00 0.00 0.00 74 1013.4
20260509181920 70 108 0.0 2.6 0.00 0.00 0.00 75 1013.1
20260509181418 70 186 0.9 2.6 0.00 0.00 0.00 74 1013.2
20260509180914 69 129 0.0 1.7 0.00 0.00 0.00 75 1013.3
20260509180409 70 40 0.0 0.0 0.00 0.00 0.00 77 1013.5
20260509175907 70 355 0.9 1.7 0.00 0.00 0.00 76 1013.1
20260509175403 69 119 0.0 2.6 0.00 0.00 0.00 76 1013.4
20260509174859 70 357 0.0 0.9 0.00 0.00 0.00 77 1013.4
20260509174356 69 2 0.0 0.0 0.00 0.00 0.00 79 1013.4
20260509173851 68 358 0.9 1.7 0.00 0.00 0.00 78 1013.4
20260509173341 67 359 0.0 2.6 0.00 0.00 0.00 79 1013.1
20260509172838 67 358 0.0 0.9 0.00 0.00 0.00 78 1013.3
20260509172334 68 359 1.7 1.7 0.00 0.00 0.00 77 1013.1
20260509171830 67 223 0.9 1.7 0.00 0.00 0.00 78 1013.3
20260509171326 68 195 0.9 1.7 0.00 0.00 0.00 78 1013.4
20260509170823 68 195 0.0 0.0 0.00 0.00 0.00 80 1013.6
20260509170319 68 137 1.7 1.7 0.00 0.00 0.00 79 1013.6
20260509165818 68 274 0.0 1.7 0.00 0.00 0.00 79 1013.6
20260509165313 67 199 0.0 1.7 0.00 0.00 0.00 82 1013.7
20260509164809 67 231 2.6 3.5 0.00 0.00 0.00 80 1013.9
20260509164300 66 155 0.0 1.7 0.00 0.00 0.00 82 1013.8
20260509163756 66 243 1.7 3.5 0.00 0.00 0.00 83 1014.0
20260509163253 67 105 0.9 1.7 0.00 0.00 0.00 83 1014.3
20260509162752 66 158 0.0 0.9 0.00 0.00 0.00 86 1014.0
20260509162245 66 191 2.6 6.1 0.00 0.00 0.00 83 1014.3
20260509161741 66 175 0.0 2.6 0.00 0.00 0.00 86 1014.0
20260509161232 66 114 0.0 0.0 0.00 0.00 0.00 87 1014.1